Flag Weather past 2 weeks in Dormagen, North Rhine-Westphalia, Germany

Now
59 °F

Broken clouds.


Feels Like: 58 °F
Forecast: 51 / 65 °F
Wind: 8 mph from Southeast

Location: Duesseldorf

Current Time: Oct 30, 2014 at 1:24:17 PM

Latest Report: Oct 30, 2014 at 12:50 PM


Visibility: N/A

Pressure: 30.21 "Hg

Humidity: 82%

Dew point: 54 °F

Location of DormagenLocation

Historic Weather in Dormagen — Graph

°F

Dormagen temperature yesterday

Maximum temperature yesterday: 52 °F (at 7:50 PM)
Minimum temperature yesterday: 43 °F (at 12:20 AM)
Average temperature yesterday: 48 °F

Past Weeks' High & Low Weather Summary

 TemperatureHumidityPressure
High75 °F (Oct 19, 2:20 PM)100% (Oct 16, 3:50 AM)30.27 "Hg (Oct 16, 3:50 AM)
Low43 °F (Oct 28, 9:20 PM)57% (Oct 19, 2:20 PM)29.50 "Hg (Oct 21, 3:20 PM)
Average55 °F83%30.03 "Hg
* Reported Oct 15 1:20 PM — Oct 30 12:20 PM, Dormagen, Weather by CustomWeather, © 2014

Note: Actual official high and low records may vary slightly from our data, if they occured in-between our weather recording intervals... More about our weather records

Advertising

Dormagen weather history for previous 24 hours

 ConditionsComfort  
Time TempWeatherWind HumidityBarometerVisibility
12:20 PM
Oct 30
57 °FPartly sunny.5 mph88%30.21 "HgN/A
11:50 AM57 °FPartly sunny.7 mph88%30.21 "HgN/A
11:20 AM55 °FBroken clouds.8 mph94%30.21 "Hg5 mi
10:50 AM55 °FPartly sunny.7 mph94%30.21 "Hg4 mi
10:20 AM55 °FPartly sunny.7 mph94%30.21 "Hg4 mi
9:50 AM54 °FBroken clouds.8 mph100%30.21 "Hg4 mi
9:20 AM54 °FPartly sunny.7 mph100%30.21 "Hg4 mi
8:50 AM54 °FFog.6 mph100%30.18 "Hg3 mi
8:20 AM54 °FDrizzle. Fog.6 mph100%30.18 "Hg1 mi
7:50 AM54 °FFog.6 mph100%30.18 "Hg1 mi
7:20 AM52 °FFog.6 mph100%30.18 "Hg1 mi
6:50 AM52 °FFog.5 mph100%30.18 "Hg1 mi
6:20 AM52 °FFog.5 mph100%30.18 "Hg1 mi
5:50 AM52 °FFog.3 mph100%30.18 "Hg1 mi
5:20 AM52 °FFog.3 mph100%30.15 "Hg1 mi
4:50 AM52 °FFog.3 mph100%30.15 "Hg1 mi
4:20 AM52 °FFog.6 mph100%30.15 "Hg1 mi
3:50 AM52 °FFog.3 mph100%30.15 "Hg1 mi
3:20 AM52 °FFog.2 mph100%30.15 "Hg1 mi
2:50 AM52 °FFog.2 mph100%30.15 "Hg1 mi
2:20 AM52 °FFog.3 mph100%30.15 "Hg1 mi
1:50 AM52 °FFog.3 mph94%30.15 "Hg2 mi
1:20 AM52 °FDrizzle. Fog.3 mph94%30.15 "Hg2 mi
12:50 AM52 °FDrizzle. Fog.5 mph94%30.15 "Hg2 mi
12:20 AM52 °FFog.3 mph94%30.15 "Hg2 mi
11:50 PM
Oct 29
52 °FLow clouds.2 mph94%30.15 "Hg4 mi
11:20 PM52 °FLow clouds.5 mph94%30.12 "Hg4 mi
10:50 PM52 °FLow clouds.5 mph94%30.12 "Hg4 mi
10:20 PM52 °FLow clouds.6 mph94%30.12 "Hg4 mi
9:50 PM52 °FLow clouds.3 mph94%30.12 "Hg4 mi
9:20 PM52 °FLow clouds.5 mph94%30.12 "Hg4 mi
8:50 PM52 °FLow clouds.5 mph94%30.12 "Hg4 mi
8:20 PM52 °FLow clouds.1 mph94%30.12 "Hg4 mi
7:50 PM52 °FDrizzle. Low clouds.1 mph88%30.09 "Hg4 mi
7:20 PM50 °FDrizzle. Low clouds.2 mph94%30.09 "Hg4 mi
6:50 PM50 °FLow clouds.2 mph94%30.09 "Hg5 mi
6:20 PM50 °FPassing clouds.3 mph94%30.09 "Hg4 mi
5:50 PM50 °FPassing clouds.3 mph94%30.07 "Hg5 mi
5:20 PM50 °FDrizzle. Mostly cloudy.5 mph94%30.07 "Hg4 mi
4:50 PM50 °FDrizzle. Partly sunny.5 mph94%30.07 "Hg4 mi
4:20 PM50 °FDrizzle. Low clouds.7 mph94%30.07 "Hg4 mi
3:50 PM50 °FDrizzle. Low clouds.6 mph94%30.07 "Hg5 mi
3:20 PM50 °FDrizzle. Overcast.9 mph94%30.07 "Hg4 mi
2:50 PM50 °FDrizzle. Overcast.8 mph94%30.07 "Hg4 mi
2:20 PM50 °FDrizzle. Low clouds.9 mph88%30.07 "Hg4 mi
1:50 PM50 °FDrizzle. Low clouds.8 mph88%30.07 "Hg4 mi
1:20 PM50 °FOvercast.7 mph88%30.07 "Hg4 mi
Weather by CustomWeather, © 2014

See weather overviewHow to use our weather pages